Regional Weather Roundup
Issued by NWS

Home | Current Version | Previous Version | Text Only | Print | Product List | Glossary On
Versions: 1 2 3 4 5 6 7 8 9 10 11 12 13 14 15 16 17 18 19 20 21 22 23 24 25 26 27 28 29 30 31 32 33 34 35 36 37 38 39 40 41 42 43 44 45 46 47 48 49 50
843
ASUS44 KLIX 210101
RWRLA
LOUISIANA WEATHER ROUNDUP
NATIONAL WEATHER SERVICE NEW ORLEANS LA
800 PM CDT WED AUG 20 2014

NOTE: "FAIR" INDICATES FEW OR NO CLOUDS BELOW 12,000 FEET WITH NO
      SIGNIFICANT WEATHER AND/OR OBSTRUCTIONS TO VISIBILITY.
      SKY/WX - SKY CONDITION AND SIGNIFICANT WEATHER.
      TMP - AIR TEMPERATURE.    DP   - DEWPOINT TEMPERATURE.
      RH  - RELATIVE HUMIDITY.  PRES - PRESSURE.
      HX  - HEAT INDEX.         WCI  - WIND CHILL INDEX.

*  THESE STATIONS ARE NOT NWS OR FAA STATIONS AND ARE NOT UNDER
   NWS QUALITY CONTROL.

LAZ040-048-061>063-065-066-069-210200-
SOUTHEAST LOUISIANA

CITY           SKY/WX    TMP DP  RH WIND       PRES   REMARKS
N.O. AUDUBON   NOT AVBL
N.O. INTL ARPT CLOUDY    80  74  81 CALM      30.06R
N.O. LAKEFRONT MOCLDY    84  75  74 SW6       30.06R
N.O. DOWNTOWN* FAIR      84  73  70 SW5       30.07R
SLIDELL        MOCLDY    84  74  71 SW3       30.05S
BATON ROUGE    CLOUDY    80  74  81 S3        30.07R
BOOTHVILLE     PTCLDY    86  75  69 S8        30.07S HX  95
BELLE CHASSE   MOCLDY    82  74  76 SW3       30.06R
BOGALUSA*      FAIR      84  73  70 SW6       30.06S
GALLIANO*      NOT AVBL
NEW ROADS*     FAIR      77  73  88 CALM      30.06R
GONZALES*      FAIR      76  76 100 CALM      30.07R
HAMMOND*       NOT AVBL
HOUMA*         CLOUDY    76  73  91 SW3       30.07R
PORT FOURCHON* CLEAR     86  77  74 VRB6      30.08R HX  97

$$

LAZ041-044-053-054-210200-
SOUTHWEST LOUISIANA

CITY           SKY/WX    TMP DP  RH WIND       PRES   REMARKS
LAKE CHARLES   CLOUDY    80  73  79 E8        30.03S
LAFAYETTE      CLOUDY    78  75  90 CALM      30.05R
PATTERSON      CLOUDY   N/A N/A N/A MISG        N/A
SALT POINT       N/A     82  77  84 CALM      30.06R
NEW IBERIA     CLOUDY    81  76  84 CALM      30.06R
CHENAULT AIRPK CLEAR     79  72  78 E7        30.05S

$$

LAZ027-028-210200-
CENTRAL LOUISIANA

CITY           SKY/WX    TMP DP  RH WIND       PRES   REMARKS
FORT POLK      CLOUDY    75  73  93 SE6       30.03F
ALEXANDRIA INT CLOUDY    77  71  82 S3        30.01F
ALEXANDRIA     CLOUDY    79  73  82 SW7       30.04S

$$

LAZ001-002-210200-
NORTHWEST LOUISIANA

CITY           SKY/WX    TMP DP  RH WIND       PRES   REMARKS
SHREVEPORT     PTCLDY    83  66  56 S13       29.99R
BARKSDALE AFB  PTCLDY    84  67  56 S12       29.99R
DTN SHREVEPORT CLEAR     85  67  54 S17       29.99R

$$

LAZ014-016-210200-
NORTHEAST LOUISIANA

CITY           SKY/WX    TMP DP  RH WIND       PRES   REMARKS
MONROE         CLEAR     85  73  67 CALM      30.01F
TALLULAH       PTCLDY    80  74  81 CALM      30.00F

$$




USA.gov is the U.S. government's official web portal to all federal, state and local government web resources and services.